Cape Race, Canada

12:15 PM NDT on May 26, 2018 (GMT -0230)
Cape Race

Weather History for CWRA - February, 2013

Change the Weather History Date:

Wednesday, February 13, 2013

  Actual Average Record
Temperature  
Mean Temperature 32 °F -  
Max Temperature 34 °F - - ()
Min Temperature 29 °F - - ()
Degree Days  
Heating Degree Days 34    
Moisture  
Dew Point 30 °F    
Average Humidity 92    
Maximum Humidity 100    
Minimum Humidity 77    
Precipitation  
Precipitation 0.00 in - - ()
Sea Level Pressure  
Sea Level Pressure 29.28 in    
Wind  
Wind Speed 26 mph ()    
Max Wind Speed 41 mph    
Max Gust Speed 56 mph    
T = Trace of Precipitation, MM = Missing Value Source: Averaged Metar Reports

Daily Weather History Graph

Daily Weather History Graph

Search for Another Location

Airport or City:

Astronomy

Feb. 13, 2013 Rise Set
Actual Time 7:09 AM NST 5:24 PM NST
Civil Twilight 6:37 AM NST 5:55 PM NST
Nautical Twilight 6:02 AM NST 6:31 PM NST
Astronomical Twilight 5:27 AM NST 7:06 PM NST
Moon 8:18 AM NST (2/13) 9:39 PM NST (2/13)
Length of Visible Light 11h 18m
Length of Day
10h 15m
Waxing Crescent, 13% of the Moon is Illuminated
Feb 13
Waxing Crescent
Feb 17
First Quarter
Feb 25
Full
Mar 4
Last Quarter
Mar 11
New

Hourly Weather History & Observations

Time (NST) Temp. Windchill Dew Point Humidity Pressure Visibility Wind Dir Wind Speed Gust Speed Precip Events Conditions
12:30 AM 35.2 °F 22.7 °F 34.9 °F 99% 29.22 in - South 26.5 mph 33.4 mph 0.03 in   Unknown
1:30 AM 34.2 °F 21.5 °F 34.0 °F 99% 29.24 in - WSW 25.3 mph 31.1 mph N/A   Unknown
2:30 AM 34 °F - 34 °F 99% 29.24 in - SW 20.7 mph - -  
2:30 AM 34.0 °F 22.4 °F 33.8 °F 99% 29.24 in - SW 20.7 mph 28.8 mph N/A   Unknown
3:30 AM 31.3 °F 18.5 °F 31.5 °F 100% 29.25 in - SW 21.9 mph 29.9 mph N/A   Unknown
4:30 AM 33.1 °F 21.2 °F 32.9 °F 99% 29.26 in - SW 20.7 mph 27.6 mph N/A   Unknown
5:30 AM 33 °F - 32 °F 94% 29.26 in - SW 25.3 mph - -  
5:30 AM 32.9 °F 19.8 °F 32.0 °F 96% 29.26 in - SW 25.3 mph 35.7 mph N/A   Unknown
6:30 AM 32.9 °F 19.6 °F 31.5 °F 94% 29.23 in - SSW 26.5 mph - N/A   Unknown
7:30 AM 31.3 °F 17.1 °F 31.1 °F 99% 29.21 in - SSW 27.6 mph 35.7 mph N/A   Unknown
8:30 AM 31 °F - 31 °F 97% 29.21 in - SW 27.6 mph - -  
8:30 AM 31.3 °F 17.1 °F 30.6 °F 97% 29.21 in - SW 27.6 mph 35.7 mph N/A   Unknown
9:30 AM 30.6 °F 15.7 °F 29.7 °F 96% 29.21 in - SW 29.9 mph 39.1 mph N/A   Unknown
10:30 AM 31.6 °F 16.7 °F 31.8 °F 100% 29.22 in - SW 32.2 mph 43.7 mph N/A   Unknown
11:30 AM 31 °F - 29 °F 92% 29.23 in - WSW 32.2 mph - -  
11:30 AM 30.9 °F 15.7 °F 29.5 °F 94% 29.23 in - WSW 32.2 mph 40.3 mph N/A   Unknown
12:30 PM 31.6 °F 15.8 °F 29.3 °F 91% 29.23 in - WSW 36.8 mph 48.3 mph N/A   Unknown
1:30 PM 31.1 °F 14.5 °F 28.8 °F 91% 29.24 in - WSW 40.3 mph 50.6 mph N/A   Unknown
2:30 PM 33 °F - 31 °F 87% 29.24 in - WSW 41.4 mph - -  
2:30 PM 33.4 °F 17.6 °F 30.6 °F 89% 29.24 in - WSW 41.4 mph 52.9 mph N/A   Unknown
3:30 PM 31.6 °F 15.1 °F 28.6 °F 88% 29.25 in - WSW 41.4 mph 56.4 mph N/A   Unknown
4:30 PM 30.7 °F 13.8 °F 27.3 °F 87% 29.28 in - West 41.4 mph 51.8 mph N/A   Unknown
5:30 PM 30 °F - 27 °F 84% 29.31 in - West 39.1 mph - -  
5:30 PM 30.2 °F 13.5 °F 27.0 °F 88% 29.31 in - West 39.1 mph 49.5 mph N/A   Unknown
6:30 PM 30.0 °F 13.8 °F 26.8 °F 88% 29.34 in - West 35.7 mph 43.7 mph N/A   Unknown
7:30 PM 30.9 °F 15.5 °F 27.7 °F 88% 29.37 in - West 33.4 mph 42.6 mph N/A   Unknown
8:30 PM 31 °F - 28 °F 81% 29.40 in - West 32.2 mph - -  
8:30 PM 30.9 °F 15.7 °F 27.5 °F 87% 29.40 in - West 32.2 mph 42.6 mph N/A   Unknown
9:30 PM 30.4 °F 15.2 °F 26.4 °F 85% 29.43 in - West 31.1 mph 39.1 mph N/A   Unknown
10:30 PM 29.1 °F 13.2 °F 24.8 °F 84% 29.43 in - West 32.2 mph 42.6 mph N/A   Unknown
11:30 PM 29 °F - 25 °F 77% 29.44 in - West 35.7 mph - -  
11:30 PM 29.3 °F 12.8 °F 24.6 °F 83% 29.44 in - West 35.7 mph 47.2 mph N/A   Unknown